Regional Weather Roundup
Issued by NWS

Home | Current Version | Previous Version | Graphics & Text | Print | Product List | Glossary Off
Versions: 1 2 3 4 5 6 7 8 9 10 11 12 13 14 15 16 17 18 19 20 21 22 23 24 25 26 27 28 29 30 31 32 33 34 35 36 37 38 39 40 41 42 43 44 45 46 47 48 49 50

000
ASUS43 KDMX 192001
RWRIA

WEATHER ROUNDUP FOR IOWA
NATIONAL WEATHER SERVICE DES MOINES IA
300 PM CDT SAT AUG 19 2017

NOTE: "FAIR" INDICATES FEW OR NO CLOUDS BELOW 12,000 FEET WITH NO
SIGNIFICANT WEATHER AND/OR OBSTRUCTIONS TO VISIBILITY.

* - THESE STATIONS ARE NOT NWS STATIONS...THUS NOT UNDER NWS
QUALITY CONTROL.  THEY ALSO DO NOT REPORT WEATHER SUCH
AS PRECIPITATION OR FOG.

IAZ001>003-012>014-020>022-031>034-043>046-192100-
   NORTHWEST IOWA

CITY           SKY/WX    TMP DP  RH WIND       PRES   REMARKS
CARROLL *      SUNNY     79  66  65 SE6       29.95F HX  81
CHEROKEE *     SUNNY     80  66  60 S5        29.94F HX  82
DENISON *      SUNNY     81  64  57 VRB5      29.95F HX  82
LE MARS *      SUNNY     81  61  50 S5G12     29.92F HX  81
ORANGE CITY *  SUNNY     81  64  57 S8        29.93F HX  82
SHELDON *      SUNNY     79  63  57 S8        29.92F HX  80
SIOUX CITY     SUNNY     81  64  56 S8        29.92F HX  82
SPENCER        SUNNY     80  62  54 S6        29.94F HX  81
STORM LAKE *   SUNNY     77  66  69 S7        29.95F
$$

IAZ055>058-069>071-079>083-090>094-192100-
   SOUTHWEST IOWA

CITY           SKY/WX    TMP DP  RH WIND       PRES   REMARKS
ATLANTIC *     SUNNY     82  64  54 CALM      29.94F HX  84
AUDUBON *      SUNNY     81  70  69 E7        29.96F HX  84
CLARINDA *     SUNNY     86  61  42 CALM      29.96F HX  86
COUNCIL BLFS * SUNNY     84  61  45 SE6G13    29.94F HX  84
CRESTON *      SUNNY     86  54  32 NW7       29.97F HX  84
HARLAN  *      SUNNY     82  63  51 VRB5      29.97F HX  83
LAMONI         SUNNY     89  55  31 VRB5      29.95F HX  87
RED OAK *      SUNNY     84  63  48 S6        29.94F HX  85
SHENANDOAH *   SUNNY     86  57  37 SE7       29.94F HX  85
$$

IAZ047>049-059>061-072>074-084-192100-
   CENTRAL IOWA

CITY           SKY/WX    TMP DP  RH WIND       PRES   REMARKS
AMES           MOSUNNY   79  67  66 S6        29.95S HX  81
ANKENY *       PTSUNNY   82  66  57 S3        29.95S HX  85
BOONE *        SUNNY     81  66  61 S5        29.95F HX  83
CHARITON *     SUNNY     84  57  39 VRB7      29.94F HX  83
DES MOINES     MOSUNNY   82  62  50 CALM      29.94F HX  83
GRINNELL*      MOSUNNY   79  66  64 E5        29.97F HX  81
KNOXVILLE *    SUNNY     84  57  39 CALM      29.92F HX  83
MARSHALLTOWN   MOSUNNY   79  64  60 SE7       29.95F HX  81
NEWTON *       SUNNY     81  64  57 SE6       29.95F HX  82
PELLA *        MOSUNNY   86  60  40 E5        29.94F HX  85
PERRY *          N/A     82  66  59 CALM      29.95F HX  84
$$

IAZ004>006-015-016-023>025-035-036-192100-
   NORTH CENTRAL IOWA

CITY           SKY/WX    TMP DP  RH WIND       PRES   REMARKS
ALGONA *       MOSUNNY   77  66  69 S9        29.95F
CLARION *      MOSUNNY   79  66  65 SE6       29.95F HX  81
ESTHERVILLE    MOSUNNY   76  66  71 S7        29.94F
FORT DODGE *   PTSUNNY   81  64  57 S7        29.95F HX  82
MASON CITY     SUNNY     79  61  53 S5        29.96F HX  80
FOREST CITY *    N/A     77  61  57 SE3       29.95F
WEBSTER CITY * MOSUNNY   81  64  57 S5        29.93F HX  82
IOWA FALLS *     N/A     79  64  59 E7        29.96F HX  81
$$

IAZ007>011-017>019-026>030-037>042-050>054-066-192100-
   NORTHEAST IOWA

CITY           SKY/WX    TMP DP  RH WIND       PRES   REMARKS
CEDAR RAPIDS   MOSUNNY   80  61  52 S6        29.96S HX  81
CHARLES CITY * SUNNY     77  61  57 S5        29.97F
CLINTON *      SUNNY     80  59  48 E5        29.97F HX  81
DECORAH *      SUNNY     77  57  50 SW5       29.96F
DUBUQUE        SUNNY     79  60  52 CALM      29.98S HX  80
MONTICELLO *   SUNNY     79  59  50 VRB5      29.96F HX  80
OELWEIN *      SUNNY     79  63  57 VRB5      29.97F HX  80
WATERLOO       PTSUNNY   79  60  52 VRB6      29.94F HX  80
$$

IAZ064-065-067-068-078-192100-
   EAST CENTRAL IOWA

CITY           SKY/WX    TMP DP  RH WIND       PRES   REMARKS
DAVENPORT      SUNNY     80  58  46 VRB5      29.98S HX  80
IOWA CITY      SUNNY     82  61  48 CALM      29.97F HX  83
MUSCATINE *    SUNNY     82  61  47 VRB6      29.95F HX  83
QUAD CITIES    SUNNY     82  61  48 S6        29.95F HX  83
$$

IAZ062-063-075>077-085>089-095>099-192100-
   SOUTHEAST IOWA

CITY           SKY/WX    TMP DP  RH WIND       PRES   REMARKS
BURLINGTON     SUNNY     82  67  60 SE6       29.95F HX  84
FAIRFIELD *    SUNNY     86  61  42 E9G15     29.93F HX  86
FORT MADISON * PTSUNNY   81  72  74 E3        29.95F HX  84
KEOKUK *       SUNNY     84  68  58 E10       29.93F HX  87
OSKALOOSA *      N/A     84  64  50 E3        29.94F HX  86
OTTUMWA        SUNNY     87  60  40 VRB3      29.93F HX  87
WASHINGTON *   SUNNY     82  64  54 E6        29.96F HX  84
$$

ABBREVIATIONS USED IN REMARKS
   TC - TEMPERATURES IN CELSIUS
  WCI - WIND CHILL INDEX
   HX - HEAT INDEX
  VSB - VISIBILITY
$$





USA.gov is the U.S. government's official web portal to all federal, state and local government web resources and services.